Huntsville, AL

12:40 AM CST on November 25, 2017 (GMT -0600)
Huntsville International

Weather History for KHSV - December, 2013

Change the Weather History Date:

Tuesday, December 10, 2013

  Actual Average Record
Temperature  
Mean Temperature 35 °F 45 °F  
Max Temperature 43 °F 55 °F 76 °F (2007)
Min Temperature 26 °F 35 °F 8 °F (1937)
Degree Days  
Heating Degree Days 30 20  
Month to date heating degree days 175 190  
Since 1 July heating degree days 810 717  
Cooling Degree Days 0 0  
Month to date cooling degree days 1 0  
Year to date cooling degree days 1835 1949  
Moisture  
Dew Point 29 °F    
Average Humidity 78    
Maximum Humidity 100    
Minimum Humidity 55    
Precipitation  
Precipitation 0.15 in 0.21 in 2.16 in (2002)
Month to date precipitation 3.64 1.98  
Year to date precipitation 55.36 50.55  
Snow  
Snow 0.00 in - - ()
Month to date snowfall 0.0  
Since 1 July snowfall T  
Snow Depth 0.00 in    
Sea Level Pressure  
Sea Level Pressure 30.27 in    
Wind  
Wind Speed 6 mph (NNW)    
Max Wind Speed 20 mph    
Max Gust Speed 23 mph    
Visibility 8 miles    
Events Rain    
T = Trace of Precipitation, MM = Missing Value Source: NWS Daily Summary

Daily Weather History Graph

Daily Weather History Graph

Search for Another Location

Airport or City:

Trip Planner

Search our weather history database for the weather conditions in past years. The results will help you decide how hot, cold, wet, or windy it might be!

Date:

Astronomy

Dec. 10, 2013 Rise Set
Actual Time 6:43 AM CST 4:36 PM CST
Civil Twilight 6:15 AM CST 5:04 PM CST
Nautical Twilight 5:44 AM CST 5:35 PM CST
Astronomical Twilight 5:13 AM CST 6:06 PM CST
Moon 12:25 PM CST (12/10) 12:15 AM CST (12/10)
Length of Visible Light 10h 48m
Length of Day
9h 53m
Waxing Gibbous, 62% of the Moon is Illuminated
Dec 10
Waxing Gibbous
Dec 17
Full
Dec 25
Last Quarter
Jan 1
New
Jan 7
First Quarter

Hourly Weather History & Observations

Time (CST) Temp. Windchill Dew Point Humidity Pressure Visibility Wind Dir Wind Speed Gust Speed Precip Events Conditions
12:27 AM 35.6 °F 27.5 °F 33.8 °F 93% 30.12 in 2.5 mi NW 11.5 mph - 0.07 in Rain Rain
12:34 AM 35.6 °F 28.6 °F 33.8 °F 93% 30.11 in 3.0 mi NNW 9.2 mph - 0.09 in Rain Heavy Rain
12:50 AM 35.6 °F 28.0 °F 33.8 °F 93% 30.11 in 5.0 mi North 10.4 mph - 0.13 in Rain Light Rain
12:53 AM 35.1 °F 27.9 °F 33.1 °F 92% 30.11 in 5.0 mi North 9.2 mph - 0.13 in Rain Light Rain
1:53 AM 35.1 °F 29.3 °F 33.1 °F 92% 30.11 in 8.0 mi North 6.9 mph - 0.01 in   Overcast
2:51 AM 35.6 °F 31.7 °F 33.8 °F 93% 30.11 in 10.0 mi NNW 4.6 mph - 0.01 in   Overcast
2:53 AM 35.1 °F 31.0 °F 32.0 °F 89% 30.12 in 10.0 mi NNW 4.6 mph - 0.01 in   Overcast
3:13 AM 33.8 °F 27.7 °F 33.8 °F 100% 30.10 in 6.0 mi North 6.9 mph - 0.00 in Rain Light Rain
3:53 AM 34.0 °F 28.0 °F 33.1 °F 96% 30.13 in 6.0 mi NNW 6.9 mph - 0.00 in   Overcast
4:25 AM 33.8 °F 27.0 °F 32.0 °F 93% 30.12 in 5.0 mi NNW 8.1 mph - 0.00 in Rain Light Rain
4:49 AM 33.8 °F 27.7 °F 32.0 °F 93% 30.14 in 10.0 mi NW 6.9 mph - 0.00 in   Overcast
4:50 AM 34.0 °F 27.2 °F 32.0 °F 92% 30.15 in 10.0 mi NNW 8.1 mph - 0.00 in   Overcast
5:35 AM 33.8 °F 25.8 °F 30.2 °F 87% 30.17 in 10.0 mi NW 10.4 mph - N/A   Overcast
5:53 AM 34.0 °F 26.6 °F 30.9 °F 89% 30.19 in 10.0 mi NW 9.2 mph - N/A   Overcast
6:53 AM 33.1 °F 23.9 °F 30.0 °F 89% 30.25 in 10.0 mi NNW 12.7 mph - N/A   Overcast
7:31 AM 33.8 °F 24.3 °F 30.2 °F 87% 30.28 in 6.0 mi NW 13.8 mph 19.6 mph N/A   Overcast
7:53 AM 32.0 °F 20.5 °F 28.9 °F 88% 30.32 in 7.0 mi NNW 18.4 mph 23.0 mph N/A   Overcast
8:07 AM 32.0 °F 22.1 °F 28.4 °F 87% 30.32 in 8.0 mi NW 13.8 mph 20.7 mph N/A   Overcast
8:53 AM 32.0 °F 23.6 °F 28.0 °F 85% 30.36 in 9.0 mi NNW 10.4 mph - N/A   Overcast
9:53 AM 34.0 °F 27.2 °F 27.0 °F 75% 30.38 in 10.0 mi North 8.1 mph - N/A   Scattered Clouds
10:53 AM 37.0 °F 31.6 °F 26.1 °F 65% 30.37 in 10.0 mi North 6.9 mph - N/A   Partly Cloudy
11:53 AM 39.0 °F 34.0 °F 26.1 °F 60% 30.36 in 10.0 mi NNW 6.9 mph - N/A   Partly Cloudy
12:53 PM 39.9 °F 36.7 °F 27.0 °F 60% 30.35 in 10.0 mi North 4.6 mph - N/A   Partly Cloudy
1:53 PM 41.0 °F - 27.0 °F 57% 30.35 in 10.0 mi Calm Calm - N/A   Partly Cloudy
2:53 PM 43.0 °F 41.3 °F 28.0 °F 56% 30.35 in 10.0 mi NNW 3.5 mph - N/A   Partly Cloudy
3:53 PM 42.1 °F 38.4 °F 28.0 °F 58% 30.36 in 10.0 mi NNW 5.8 mph - N/A   Partly Cloudy
4:53 PM 37.9 °F 35.5 °F 28.0 °F 68% 30.38 in 10.0 mi North 3.5 mph - N/A   Clear
5:53 PM 34.0 °F 28.8 °F 28.0 °F 79% 30.39 in 10.0 mi NNE 5.8 mph - N/A   Clear
6:53 PM 33.1 °F 28.7 °F 27.0 °F 78% 30.39 in 10.0 mi ENE 4.6 mph - N/A   Clear
7:53 PM 32.0 °F 26.4 °F 27.0 °F 82% 30.38 in 10.0 mi East 5.8 mph - N/A   Clear
8:53 PM 30.9 °F 26.2 °F 27.0 °F 85% 30.38 in 10.0 mi East 4.6 mph - N/A   Clear
9:53 PM 30.9 °F - 27.0 °F 85% 30.38 in 10.0 mi Calm Calm - N/A   Clear
10:53 PM 30.0 °F - 26.1 °F 85% 30.39 in 8.0 mi Calm Calm - N/A   Clear
11:53 PM 27.0 °F - 24.1 °F 89% 30.40 in 6.0 mi Calm Calm - N/A   Clear